Regional Weather Roundup
Issued by NWS Charleston, SC

Current Version | Previous Version | Graphics & Text | Print | Product List | Glossary On
Versions: 1 2 3 4 5 6 7 8 9 10 11 12 13 14 15 16 17 18 19 20 21 22 23 24 25 26 27 28 29 30 31 32 33 34 35 36 37 38 39 40 41 42 43 44 45 46 47 48 49 50
000 ASUS42 KCHS 280212 RWRCHS REGIONAL WEATHER ROUNDUP NATIONAL WEATHER SERVICE CHARLESTON SC 1000 PM EDT TUE JUN 27 2017 NOTE: "FAIR" INDICATES FEW OR NO CLOUDS BELOW 12,000 FEET WITH NO SIGNIFICANT WEATHER AND/OR OBSTRUCTIONS TO VISIBILITY. NOT ALL STATIONS ARE QUALITY CONTROLLED. USE DATA WITH CAUTION... ESPECIALLY DEWPOINT OBSERVATIONS. SCZ027-030-031-034>040-042>050-280300- ...SOUTHEAST SOUTH CAROLINA... CITY SKY/WX TMP DP RH WIND PRES REMARKS N CHARLESTON PTCLDY 77 63 61 CALM 30.04R WATERFRONT PRK N/A 80 67 64 VRB3 30.01R JOHNS ISLAND FAIR 73 70 88 CALM 30.04R PINOPOLIS N/A 77 70 78 CALM 29.96R MONCKS CORNER FAIR 72 68 88 CALM 30.04R SUMMERVILLE FAIR 72 70 94 CALM 30.05R BEAUFORT MCAS MOCLDY 75 70 84 CALM 30.04R BEAUFORT ARPT FAIR 77 68 73 CALM 30.04R HILTON HEAD IS CLOUDY 79 72 78 SE3 30.04R WALTERBORO PTCLDY 73 68 83 CALM 30.06R ALLENDALE FAIR 77 70 78 CALM 30.04R ...SOUTHERN MIDLANDS AND PEE DEE... CITY SKY/WX TMP DP RH WIND PRES REMARKS GEORGETOWN FAIR 72 70 94 CALM 30.05R KINGSTREE FAIR 72 70 94 CALM 30.05R ORANGEBURG MOCLDY 73 68 84 S3 30.05R BARNWELL FAIR 77 73 88 CALM 30.05R AIKEN FAIR 73 61 64 CALM 30.09R MANNING FAIR 72 70 94 CALM 30.05R COLUMBIA PTCLDY 81 58 45 N6 30.05R SUMTER CLEAR 76 65 69 CALM 30.03S FLORENCE CLOUDY 75 64 68 N8 30.05R MYRTLE BEACH CLEAR 73 66 78 CALM 30.05 N MYRTLE BEACH PTCLDY 73 68 84 CALM 30.03R $$ GAZ063-065-086>088-099>101-113>116-118-119-134>141-150-280300- ...SOUTHEAST GEORGIA... CITY SKY/WX TMP DP RH WIND PRES REMARKS SAVANNAH ARPT CLOUDY 77 66 68 CALM 30.04R HUNTER AAF MOCLDY 75 69 82 CALM 30.01R FORT STEWART CLOUDY 73 69 86 CALM 30.02R STATESBORO NOT AVBL SYLVANIA NOT AVBL CLAXTON NOT AVBL ...CSRA...CENTRAL AND FAR SOUTHEAST GEORGIA... CITY SKY/WX TMP DP RH WIND PRES REMARKS THOMSON NOT AVBL AUGUSTA-BUSH CLOUDY 74 68 81 CALM 30.03R AUGUSTA-DANIEL CLOUDY 81 57 43 NE5 30.05R SWAINSBORO NOT AVBL VIDALIA NOT AVBL EASTMAN NOT AVBL HAZLEHURST NOT AVBL ALMA CLOUDY 72 69 90 CALM 30.04R WAYCROSS NOT AVBL JESUP NOT AVBL BAXLEY NOT AVBL BRUNSWICK NOT AVBL SAINT SIMONS CLOUDY 78 73 84 SE8 30.02S $$ SCZ027-028-034-036>038-045-046-048>050-GAZ119-141-280300- ...LAKE AND SUPPLEMENTAL COASTAL OBSERVATIONS... STATION/POSITION TIME TEMP WIND PRES WAVE SWELL AIR SEA DIR/SP/G HT/PER HT/PER/DIR (UTC) (F) (DEG/KT/KT) (MB) (FT/S) (FT/S/D) WINYAH BAY 0045 78 240/ 2 1016.0 LAKE MURRAY 0120 78 CALM / 3 1016.6 ACE BASIN NERRS 0045 77 CALM 1017.0 FORT PULASKI 0142 78 83 140/ 2/ 3 1017.0R SAPELO ISLAND 0100 73 CALM 1016.0 $$ ANZ835-935-AMZ111-154-330-350-352-354-370-450-454-472-280300- ...C-MAN AND BUOY OBSERVATIONS... STATION/POSITION TIME TEMP WIND PRES WAVE SWELL AIR SEA DIR/SP/G HT/PER HT/PER/DIR (UTC) (F) (DEG/KT/KT) (MB) (FT/S) (FT/S/D) BUOY 41004 0150 80 81 110/ 6/ 8 1016.3R 2/ 7 2/140/ 7 BUOY 41008 0050 78 82 150/ 10/ 12 1015.9 2/ 4 2/140/ 7 FOLLY BEACH CMAN 0200 80 130/ 5/ 6 1017.7R CAPERS NEARSHORE 0108 86 83 140/ 8/ 10 1016.2R FRIPP NEARSHORE 0108 80 83 140/ 10/ 14 1016.1R STATION/POSITION TIME TEMP WIND PRES WAVE SWELL AIR SEA DIR/SP/G HT/PER HT/PER/DIR (UTC) (F) (DEG/KT/KT) (MB) (FT/S) (FT/S/D) 5E ST. MARYS GA 0130 80 N/A 2/ 4 FRYING PAN BUOY 0150 79 81 150/ 4/ 4 1016.3R 1/ 7 2/110/ 7 BUOY 41025 0150 80 82 260/ 8/ 8 1016.0R 2/ 8 2/110/ 8 CAPE LOOKOUT NC 0200 78 250/ 4/ 5 1016.4R BUOY 41002 0150 78 80 250/ 4/ 6 1016.5R 3/ 6 3/220/ 6 BUOY 41010 0150 81 83 140/ 2/ 4 1015.9R 3/ 7 3/130/ 7 ST AUGUSTINE FL 0200 76 79 70/ 4/ 5 1017.4S $$

USA.gov is the U.S. government's official web portal to all federal, state and local government web resources and services.